Tracking 18984 objects as of 23-Feb-2018
HD Live streaming from Space Station
objects crossing your sky now

COMPASS 2

Track COMPASS 2 now!
10-day predictions


NORAD ID: 42777
Int'l Code: 2017-036N
Perigee: 498.8 km
Apogee: 519.2 km
Inclination: 97.4 °
Period: 94.7 minutes
Semi major axis: 6879 km
RCS: Unknown
Launch date: June 23, 2017
Source: Germany (GER)
Launch site: SRIHARIKOTA (SRI)
aabbcc
Your satellite tracking list
Your tracking list is empty




NASA's NSSDC Master Catalog

Two Line Element Set (TLE):
1 42777U 17036N   18054.23744531  .00001497  00000-0  69830-4 0  9992
2 42777  97.4184 115.7778 0014776 106.3207 253.9655 15.21319883 37187
Source of the keplerian elements: AFSPC